Weather in Bransk

Poland     52°44′30″N   22°50′18″E
temp.,
°C
wind,
m/s
gust,
m/s
humid.,
%
clouds,
%
prec.,
mm/h
press.,
hPa
HPBL,
m
22 april, thu
thu2223:00+7wsw358538 0.1 100970
02:00+6wsw35887 0.1 100981
05:00+6wsw479597 0.3 1010235
08:00+5w388991 0.4 1011604
11:00+7w7874100 0.3 10121169
14:00+9w694788 0.4 10122078
17:00+8w711565 0.4 10131940
20:00+5wsw5127433 0.8 1014425
23 april, fri
fri2323:00+2wsw5108785 0.1 1014272
02:00+2wsw6137393 0.1 1015532
05:000wsw6137880 0.0 1015467
08:00+3wnw61172100 0.0 1017878
11:00+7w8115596 0.7 10162064
14:00+8wnw81048100 1.0 10172049
17:00+7wnw6106098 0.6 10181811
20:00+2wnw4106617 0.8 1019222
24 april, sat
sat2423:00−1wnw47743 0.0 1020141
02:00−2w38815 0.0 1020176
05:00−2w37835 0.0 1021159
08:00+3w47595 0.0 1021476
11:00+8w7940100 0.0 10202797
14:00+7wnw81050100 0.2 10201827
17:00+5wnw91073100 0.4 10201095
20:00+3w478474 0.8 1020215
25 april, sun
sun2523:00−1nw49808 0.0 1020218
02:00−2wnw35825 0.0 102077
05:00−3w378573 0.0 1020144
08:00+2w476010 0.0 1020521
11:00+6w5745100 0.1 10192312
14:00+6wnw795295 0.3 10181648
17:00+6wnw7957100 0.8 10171657
20:00+2nw497532 1.4 1018226
26 april, mon
mon2623:00−2wnw348746 0.0 101963
02:00−2w378793 0.0 1019159
05:00−2wsw378770 0.0 1018173
08:00+2wsw696648 0.0 1017538
11:00+7w7946100 0.0 10162069
14:00+8w7943100 0.3 10152508
17:00+8wnw6957100 0.2 10141540
20:00+3wnw347761 0.3 101453